Location: Pasarilla del Rebollar
(40.6790°N, 5.0062°W)
Time: 11:55:08
(UTC+00:00)

Cosmos 2315 Rocket - Pass Details

Date: 22 April 2026
Orbit: 965 x 1001 km, 82.9° (Epoch: 16 May)

Event Time Altitude Azimuth Distance (km) Brightness Sun altitude
Rises 04:54:04 0° 189° (S) 3,696 6.7 -7.4°
Reaches altitude 10° 04:56:35 10° 191° (S) 2,755 6.1 -7.0°
Maximum altitude 05:02:55 78° 277° (W) 1,026 4.1 -5.9°
Drops below altitude 10° 05:09:20 10° 5° (N) 2,781 6.8 -4.8°
Sets 05:11:53 0° 7° (N) 3,734 7.4 -4.3°
